AEE6AL LGAV-LGAL

Flight info

Callsign AEE6AL
Flight time 0h 36m
Altitude 23000
Route KRO T162 LMO
Aircraft A20N/M-SDE2E3FGHIRWXY/LB1

Departure

Time 2026-05-07 14:31
Airport Athens Eleftherios Venizelos International Airport (LGAV)

Arrival

Time 2026-05-07 15:07
Airport Alexandroupoli Democritus Airport (LGAL)
Time Latitude Longitude Altitude Speed Heading
2026-05-07 14:10 37.94192 23.95269 292 ft 0 kts 217°
2026-05-07 14:22 37.94192 23.95270 292 ft 0 kts 217°
2026-05-07 14:22 37.94193 23.95270 292 ft 1 kts 217°
2026-05-07 14:22 37.94204 23.95281 292 ft 2 kts 216°
2026-05-07 14:22 37.94217 23.95292 292 ft 2 kts 217°
2026-05-07 14:23 37.94228 23.95303 292 ft 2 kts 216°
2026-05-07 14:23 37.94239 23.95313 292 ft 0 kts 217°
2026-05-07 14:23 37.94249 23.95321 291 ft 2 kts 190°
2026-05-07 14:23 37.94264 23.95320 291 ft 2 kts 160°
2026-05-07 14:24 37.94276 23.95311 292 ft 0 kts 131°
2026-05-07 14:24 37.94280 23.95305 292 ft 1 kts 125°
2026-05-07 14:24 37.94281 23.95303 292 ft 0 kts 127°
2026-05-07 14:27 37.94270 23.95322 291 ft 7 kts 128°
2026-05-07 14:27 37.94218 23.95405 288 ft 14 kts 128°
2026-05-07 14:27 37.94151 23.95520 284 ft 17 kts 127°
2026-05-07 14:28 37.94082 23.95664 280 ft 21 kts 86°
2026-05-07 14:28 37.94191 23.95795 282 ft 22 kts 37°
2026-05-07 14:28 37.94330 23.95929 284 ft 27 kts 37°
2026-05-07 14:28 37.94483 23.96074 290 ft 25 kts 37°
2026-05-07 14:29 37.94626 23.96210 293 ft 26 kts 37°
2026-05-07 14:29 37.94768 23.96346 299 ft 26 kts 37°
2026-05-07 14:29 37.94929 23.96499 304 ft 29 kts 37°
2026-05-07 14:29 37.95087 23.96649 309 ft 28 kts 37°
2026-05-07 14:30 37.95250 23.96804 311 ft 26 kts 36°
2026-05-07 14:30 37.95250 23.96975 312 ft 22 kts 129°
2026-05-07 14:30 37.95125 23.96965 311 ft 32 kts 217°
2026-05-07 14:30 37.94735 23.96591 297 ft 107 kts 217°
2026-05-07 14:31 37.93973 23.95870 339 ft 158 kts 216°
2026-05-07 14:31 37.93041 23.95140 928 ft 161 kts 206°
2026-05-07 14:31 37.92020 23.94520 1617 ft 165 kts 205°
2026-05-07 14:31 37.91002 23.93892 2326 ft 166 kts 206°
2026-05-07 14:32 37.89990 23.93223 2989 ft 167 kts 207°
2026-05-07 14:32 37.88971 23.92524 3599 ft 170 kts 208°
2026-05-07 14:32 37.87844 23.91950 4024 ft 185 kts 185°
2026-05-07 14:32 37.86552 23.92328 4431 ft 202 kts 147°
2026-05-07 14:33 37.85564 23.93692 4846 ft 223 kts 122°
2026-05-07 14:33 37.84817 23.95473 5371 ft 240 kts 116°
2026-05-07 14:33 37.84085 23.97428 5942 ft 255 kts 116°
2026-05-07 14:33 37.83325 23.99490 6754 ft 260 kts 115°
2026-05-07 14:34 37.82561 24.01555 7557 ft 265 kts 114°
2026-05-07 14:34 37.82071 24.03822 8092 ft 279 kts 88°
2026-05-07 14:34 37.82601 24.06162 8743 ft 285 kts 54°
2026-05-07 14:34 37.84045 24.07801 9561 ft 284 kts 27°
2026-05-07 14:35 37.85812 24.08979 10327 ft 289 kts 27°
2026-05-07 14:35 37.87576 24.10270 10834 ft 304 kts 28°
2026-05-07 14:35 37.89439 24.11658 11203 ft 322 kts 28°
2026-05-07 14:35 37.91431 24.13131 11585 ft 340 kts 27°
2026-05-07 14:36 37.93530 24.14672 11912 ft 358 kts 27°
2026-05-07 14:36 37.95740 24.16288 12186 ft 375 kts 27°
2026-05-07 14:36 37.98065 24.17987 12487 ft 392 kts 27°
2026-05-07 14:36 38.00449 24.19724 12948 ft 402 kts 27°
2026-05-07 14:37 38.02891 24.21507 13576 ft 406 kts 27°
2026-05-07 14:37 38.07797 24.25092 14840 ft 414 kts 26°
2026-05-07 14:37 38.10322 24.26936 15444 ft 418 kts 26°
2026-05-07 14:38 38.12853 24.28776 16021 ft 422 kts 26°
2026-05-07 14:38 38.15386 24.30621 16639 ft 425 kts 26°
2026-05-07 14:38 38.17957 24.32497 17179 ft 429 kts 26°
2026-05-07 14:38 38.20555 24.34393 17718 ft 432 kts 26°
2026-05-07 14:39 38.23150 24.36291 18242 ft 436 kts 26°
2026-05-07 14:39 38.25794 24.38229 18778 ft 439 kts 26°
2026-05-07 14:39 38.28440 24.40170 19294 ft 442 kts 26°
2026-05-07 14:39 38.31170 24.42054 19803 ft 442 kts 21°
2026-05-07 14:40 38.34007 24.43533 20290 ft 443 kts 17°
2026-05-07 14:40 38.36895 24.44898 20781 ft 446 kts 16°
2026-05-07 14:40 38.39803 24.46265 21257 ft 449 kts 16°
2026-05-07 14:40 38.42721 24.47660 21719 ft 452 kts 16°
2026-05-07 14:41 38.45674 24.49091 22203 ft 455 kts 17°
2026-05-07 14:41 38.48650 24.50553 22662 ft 457 kts 17°
2026-05-07 14:41 38.51613 24.52023 23004 ft 460 kts 17°
2026-05-07 14:41 38.54579 24.53498 23066 ft 460 kts 17°
2026-05-07 14:42 38.57594 24.55003 23075 ft 461 kts 18°
2026-05-07 14:42 38.60569 24.56494 23080 ft 460 kts 17°
2026-05-07 14:42 38.63554 24.57993 23081 ft 460 kts 17°
2026-05-07 14:42 38.66507 24.59476 23080 ft 459 kts 18°
2026-05-07 14:43 38.69497 24.60977 23081 ft 459 kts 18°
2026-05-07 14:43 38.72451 24.62465 23083 ft 460 kts 18°
2026-05-07 14:43 38.75422 24.63959 23082 ft 460 kts 18°
2026-05-07 14:43 38.78395 24.65460 23081 ft 460 kts 18°
2026-05-07 14:44 38.81383 24.66984 23081 ft 460 kts 18°
2026-05-07 14:44 38.84343 24.68493 23080 ft 460 kts 18°
2026-05-07 14:44 38.87331 24.70015 23082 ft 460 kts 19°
2026-05-07 14:44 38.90315 24.71530 23083 ft 460 kts 19°
2026-05-07 14:45 38.93276 24.73034 23083 ft 460 kts 18°
2026-05-07 14:45 38.96253 24.74545 23081 ft 460 kts 19°
2026-05-07 14:45 38.99226 24.76056 23081 ft 460 kts 18°
2026-05-07 14:45 39.02189 24.77560 23082 ft 460 kts 19°
2026-05-07 14:46 39.05171 24.79074 23081 ft 460 kts 19°
2026-05-07 14:46 39.08142 24.80586 23081 ft 460 kts 19°
2026-05-07 14:46 39.11118 24.82103 23082 ft 460 kts 18°
2026-05-07 14:46 39.14081 24.83605 23080 ft 460 kts 18°
2026-05-07 14:47 39.17065 24.85121 23077 ft 460 kts 18°
2026-05-07 14:47 39.20054 24.86641 23078 ft 460 kts 18°
2026-05-07 14:47 39.23014 24.88150 23079 ft 460 kts 18°
2026-05-07 14:47 39.25974 24.89662 23079 ft 460 kts 18°
2026-05-07 14:48 39.28961 24.91189 23077 ft 460 kts 19°
2026-05-07 14:48 39.31920 24.92704 23076 ft 460 kts 18°
2026-05-07 14:48 39.34919 24.94242 23075 ft 460 kts 19°
2026-05-07 14:48 39.37880 24.95762 23075 ft 459 kts 18°
2026-05-07 14:49 39.40830 24.97276 23075 ft 460 kts 18°
2026-05-07 14:49 39.43827 24.98818 23075 ft 460 kts 18°
2026-05-07 14:49 39.46766 25.00331 23076 ft 459 kts 18°
2026-05-07 14:49 39.49758 25.01871 23076 ft 460 kts 18°
2026-05-07 14:50 39.52731 25.03403 23075 ft 460 kts 18°
2026-05-07 14:50 39.55698 25.04934 23071 ft 460 kts 19°
2026-05-07 14:50 39.58634 25.06450 23073 ft 460 kts 18°
2026-05-07 14:50 39.61624 25.07998 23074 ft 460 kts 18°
2026-05-07 14:51 39.64579 25.09525 23072 ft 459 kts 18°
2026-05-07 14:51 39.67529 25.11053 23077 ft 459 kts 19°
2026-05-07 14:51 39.70509 25.12597 23075 ft 459 kts 19°
2026-05-07 14:51 39.73452 25.14122 23074 ft 459 kts 19°
2026-05-07 14:52 39.76423 25.15665 23068 ft 459 kts 19°
2026-05-07 14:52 39.79397 25.17211 23073 ft 459 kts 19°
2026-05-07 14:52 39.82354 25.18749 23079 ft 459 kts 19°
2026-05-07 14:52 39.85297 25.20281 23082 ft 458 kts 19°
2026-05-07 14:53 39.88247 25.21821 23083 ft 458 kts 19°
2026-05-07 14:53 39.91192 25.23500 23085 ft 460 kts 22°
2026-05-07 14:53 39.94046 25.25368 23085 ft 461 kts 25°
2026-05-07 14:53 39.96843 25.27419 23086 ft 462 kts 27°
2026-05-07 14:54 39.99632 25.29532 23081 ft 462 kts 27°
2026-05-07 14:54 40.02386 25.31635 23085 ft 461 kts 27°
2026-05-07 14:54 40.05146 25.33746 22731 ft 461 kts 27°
2026-05-07 14:54 40.07885 25.35841 22190 ft 456 kts 27°
2026-05-07 14:55 40.10605 25.37919 21620 ft 452 kts 27°
2026-05-07 14:55 40.13336 25.39996 21038 ft 447 kts 27°
2026-05-07 14:55 40.15997 25.42018 20428 ft 442 kts 27°
2026-05-07 14:55 40.18619 25.44016 19888 ft 438 kts 27°
2026-05-07 14:56 40.21223 25.46003 19309 ft 434 kts 27°
2026-05-07 14:56 40.23829 25.47996 18714 ft 430 kts 27°
2026-05-07 14:56 40.26373 25.49942 18145 ft 427 kts 27°
2026-05-07 14:56 40.28931 25.51903 17572 ft 423 kts 27°
2026-05-07 14:57 40.31445 25.53833 16985 ft 420 kts 27°
2026-05-07 14:57 40.33952 25.55757 16433 ft 416 kts 27°
2026-05-07 14:57 40.36425 25.57658 15874 ft 413 kts 28°
2026-05-07 14:57 40.38910 25.59571 15292 ft 410 kts 28°
2026-05-07 14:58 40.41337 25.61441 14738 ft 407 kts 28°
2026-05-07 14:58 40.43752 25.63304 14171 ft 404 kts 28°
2026-05-07 14:58 40.46193 25.65188 13590 ft 402 kts 28°
2026-05-07 14:58 40.48568 25.67031 13015 ft 399 kts 29°
2026-05-07 14:59 40.50960 25.68890 12475 ft 396 kts 29°
2026-05-07 14:59 40.53311 25.70717 12049 ft 388 kts 29°
2026-05-07 14:59 40.55591 25.72488 11863 ft 374 kts 29°
2026-05-07 14:59 40.57780 25.74186 11641 ft 361 kts 29°
2026-05-07 15:00 40.59914 25.75839 11415 ft 350 kts 29°
2026-05-07 15:00 40.61970 25.77435 11226 ft 338 kts 29°
2026-05-07 15:00 40.64017 25.78833 11009 ft 327 kts 17°
2026-05-07 15:00 40.66205 25.79229 10821 ft 311 kts 353°
2026-05-07 15:01 40.68215 25.78466 10636 ft 295 kts 328°
2026-05-07 15:01 40.69777 25.76847 10447 ft 283 kts 316°
2026-05-07 15:01 40.71273 25.75101 9877 ft 291 kts 317°
2026-05-07 15:01 40.72800 25.73351 9245 ft 299 kts 317°
2026-05-07 15:02 40.74299 25.71478 8484 ft 294 kts 308°
2026-05-07 15:02 40.75423 25.69319 7668 ft 285 kts 296°
2026-05-07 15:02 40.76286 25.67024 6839 ft 277 kts 291°
2026-05-07 15:02 40.77403 25.65027 5894 ft 282 kts 323°
2026-05-07 15:03 40.78622 25.64390 5277 ft 284 kts 354°
2026-05-07 15:03 40.80907 25.65586 4725 ft 273 kts 52°
2026-05-07 15:03 40.81580 25.67825 4431 ft 265 kts 86°
2026-05-07 15:03 40.81737 25.70275 3860 ft 270 kts 85°
2026-05-07 15:04 40.81965 25.72701 3237 ft 271 kts 84°
2026-05-07 15:04 40.82179 25.75196 2784 ft 270 kts 85°
2026-05-07 15:04 40.82366 25.77619 2591 ft 260 kts 85°
2026-05-07 15:04 40.82531 25.79918 2358 ft 251 kts 85°
2026-05-07 15:05 40.82706 25.82162 1987 ft 242 kts 85°
2026-05-07 15:05 40.82984 25.84240 1583 ft 221 kts 76°
2026-05-07 15:05 40.83367 25.86129 1259 ft 203 kts 76°
2026-05-07 15:05 40.83735 25.87810 1106 ft 179 kts 74°
2026-05-07 15:06 40.84091 25.89318 852 ft 166 kts 74°
2026-05-07 15:06 40.84424 25.90722 595 ft 155 kts 74°
2026-05-07 15:06 40.84740 25.92051 393 ft 148 kts 74°
2026-05-07 15:06 40.85039 25.93335 159 ft 147 kts 74°
2026-05-07 15:07 40.85342 25.94615 23 ft 141 kts 74°
2026-05-07 15:07 40.85592 25.95689 25 ft 99 kts 73°
2026-05-07 15:07 40.85746 25.96344 31 ft 50 kts 73°
2026-05-07 15:07 40.85818 25.96661 33 ft 31 kts 75°
2026-05-07 15:08 40.85880 25.96924 37 ft 24 kts 69°
2026-05-07 15:08 40.85905 25.97032 37 ft 6 kts 203°
2026-05-07 15:08 40.85889 25.96954 37 ft 14 kts 253°
2026-05-07 15:08 40.85840 25.96754 33 ft 30 kts 253°
2026-05-07 15:09 40.85779 25.96491 32 ft 29 kts 253°
2026-05-07 15:09 40.85718 25.96222 30 ft 31 kts 253°
2026-05-07 15:09 40.85651 25.95934 26 ft 33 kts 253°
2026-05-07 15:09 40.85583 25.95640 25 ft 33 kts 253°
2026-05-07 15:10 40.85514 25.95350 24 ft 33 kts 253°
2026-05-07 15:10 40.85447 25.95051 22 ft 34 kts 260°
2026-05-07 15:10 40.85519 25.94766 24 ft 29 kts 298°
2026-05-07 15:10 40.85535 25.94548 24 ft 19 kts 253°
2026-05-07 15:11 40.85581 25.94493 25 ft 0 kts 346°